User: anonymous   Login
Location: Unspecified
(0.0000°N, 0.0000°E)
Time: 09:39:17
(UTC+00:00)
Language:

USA 184 - Orbit

View from above orbital plane
View from above orbital plane
View from above satellite
View from above satellite

Ground track
Ground track

The orbit data is extracted from the following two-line orbital elements,

1 29249U 06027A   18108.64285069 0.00000000  00000-0  00000-0 0    02
2 29249  62.8451 242.1162 6886852 271.2830  17.3823  2.00606000    06
Epoch (UTC): 18 April 2018 15:25:42
Eccentricity: 0.6886852
inclination: 62.8451°
perigee height: 1889 km
apogee height: 38467 km
right ascension of ascending node: 242.1162°
argument of perigee: 271.2830°
revolutions per day: 2.00606000
mean anomaly at epoch: 17.3823°
orbit number at epoch: 0

The dashed part of the orbit path shows where the satellite is in the earth's shadow,  

DLR